This is the latest recevied weather packets stored in our database for station/object MM1PTT-13. If no packets are shown the sender has not sent any weather packets the latest 10 day(s).
| Time | Temp. | Humidity | Pressure | Rain* | Wind** | Luminosity | Snow |
|---|---|---|---|---|---|---|---|
| 1777275643 | 13.33° C | 73% | 996.6 hPa | 0 mm | - | 129 W/m² | - |
| 1777275343 | 12.78° C | 75% | 996.6 hPa | 0 mm | - | 121 W/m² | - |
| 1777275042 | 12.78° C | 74% | 997 hPa | 0 mm | - | 115 W/m² | - |
| 1777274743 | 12.78° C | 76% | 997 hPa | 0 mm | - | 109 W/m² | - |
| 1777274443 | 12.22° C | 76% | 996.6 hPa | 0 mm | - | 104 W/m² | - |
| 1777274142 | 12.22° C | 76% | 996.6 hPa | 0 mm | - | 99 W/m² | - |
| 1777273843 | 11.67° C | 77% | 996.6 hPa | 0 mm | - | 93 W/m² | - |
| 1777273543 | 11.11° C | 79% | 996.6 hPa | 0 mm | - | 89 W/m² | - |
| 1777273242 | 11.11° C | 77% | 997 hPa | 0 mm | - | 86 W/m² | - |
| 1777272942 | 11.11° C | 78% | 996.6 hPa | 0 mm | - | 81 W/m² | - |
| 1777272643 | 11.11° C | 77% | 996.6 hPa | 0 mm | - | 78 W/m² | - |
| 1777272344 | 11.11° C | 76% | 996.6 hPa | 0 mm | - | 74 W/m² | - |
| 1777272042 | 11.11° C | 77% | 996.6 hPa | 0 mm | - | 72 W/m² | - |
| 1777271743 | 11.11° C | 76% | 996.6 hPa | 0 mm | - | 67 W/m² | - |
| 1777271443 | 11.11° C | 77% | 996.6 hPa | 0 mm | - | 65 W/m² | - |
| 1777271144 | 10.56° C | 78% | 996.6 hPa | 0 mm | - | 62 W/m² | - |
| 1777270843 | 10° C | 79% | 996.3 hPa | 0 mm | - | 58 W/m² | - |
| 1777270542 | 10° C | 79% | 996.3 hPa | 0 mm | - | 54 W/m² | - |
| 1777270243 | 10° C | 79% | 996.3 hPa | 0 mm | - | 52 W/m² | - |
| 1777269943 | 10.56° C | 79% | 996.6 hPa | 0 mm | - | 49 W/m² | - |
| 1777269643 | 9.44° C | 81% | 996.6 hPa | 0 mm | - | 45 W/m² | - |
| 1777269343 | 9.44° C | 83% | 996.6 hPa | 0 mm | - | 41 W/m² | - |
| 1777269043 | 8.89° C | 82% | 996.3 hPa | 0 mm | - | 37 W/m² | - |
| 1777268743 | 9.44° C | 83% | 996.3 hPa | 0 mm | - | 36 W/m² | - |
| 1777268443 | 8.89° C | 84% | 996.3 hPa | 0 mm | - | 33 W/m² | - |
* Rain latest hour (hover to see other rain measurements)
** Current wind speed in m/s (hover to see current wind gust speed)